| time (UTC) | temp C | wind direction | speed KPH | gust KPH | rain 1hr cm | rain 24hr cm | rain mn cm | humidity % | barometer mb |
| 20260506165205 | 17 | 238 | 6.4 | 14.5 | 0.00 | 0.00 | 0.00 | 67 | 1006.8 |
| 20260506164205 | 17 | 242 | 6.4 | 12.9 | 0.00 | 0.00 | 0.00 | 66 | 1006.9 |
| 20260506163705 | 17 | 235 | 6.4 | 12.9 | 0.00 | 0.00 | 0.00 | 66 | 1006.9 |
| 20260506163204 | 18 | 0 | 6.4 | 19.3 | 0.00 | 0.00 | 0.00 | 66 | 1006.9 |
| 20260506162705 | 18 | 242 | 6.4 | 19.3 | 0.00 | 0.00 | 0.00 | 65 | 1006.9 |
| 20260506162216 | 18 | 143 | 8.0 | 20.9 | 0.00 | 0.00 | 0.00 | 65 | 1007.0 |
| 20260506161707 | 18 | 208 | 9.7 | 20.9 | 0.00 | 0.00 | 0.00 | 65 | 1007.1 |
| 20260506161207 | 18 | 240 | 9.7 | 20.9 | 0.00 | 0.00 | 0.00 | 65 | 1007.1 |
| 20260506160704 | 18 | 240 | 8.0 | 17.7 | 0.00 | 0.00 | 0.00 | 64 | 1007.0 |
| 20260506160228 | 18 | 183 | 8.0 | 17.7 | 0.00 | 0.00 | 0.00 | 63 | 1006.9 |
| 20260506155705 | 19 | 173 | 6.4 | 16.1 | 0.00 | 0.00 | 0.00 | 62 | 1007.0 |
| 20260506155205 | 20 | 0 | 4.8 | 16.1 | 0.00 | 0.00 | 0.00 | 61 | 1007.0 |
| 20260506154705 | 20 | 0 | 6.4 | 16.1 | 0.00 | 0.00 | 0.00 | 60 | 1007.1 |
| 20260506153705 | 19 | 218 | 6.4 | 12.9 | 0.00 | 0.00 | 0.00 | 62 | 1007.1 |
| 20260506153205 | 18 | 217 | 6.4 | 12.9 | 0.00 | 0.00 | 0.00 | 63 | 1007.1 |
| 20260506152704 | 18 | 198 | 6.4 | 12.9 | 0.00 | 0.00 | 0.00 | 63 | 1007.2 |
| 20260506151704 | 18 | 236 | 6.4 | 19.3 | 0.00 | 0.00 | 0.00 | 63 | 1007.2 |
| 20260506151205 | 18 | 188 | 6.4 | 24.1 | 0.00 | 0.00 | 0.00 | 63 | 1007.2 |
| 20260506150705 | 18 | 225 | 8.0 | 24.1 | 0.00 | 0.00 | 0.00 | 62 | 1007.3 |
| 20260506150205 | 18 | 183 | 8.0 | 24.1 | 0.00 | 0.00 | 0.00 | 62 | 1007.2 |
| 20260506145705 | 18 | 180 | 8.0 | 20.9 | 0.00 | 0.00 | 0.00 | 62 | 1007.3 |
| 20260506145204 | 19 | 153 | 8.0 | 20.9 | 0.00 | 0.00 | 0.00 | 61 | 1007.2 |
| 20260506144704 | 19 | 233 | 8.0 | 22.5 | 0.00 | 0.00 | 0.00 | 61 | 1007.1 |
| 20260506144204 | 19 | 209 | 11.3 | 22.5 | 0.00 | 0.00 | 0.00 | 60 | 1007.2 |
| 20260506143205 | 19 | 214 | 8.0 | 17.7 | 0.00 | 0.00 | 0.00 | 59 | 1007.1 |
| 20260506142205 | 19 | 178 | 8.0 | 20.9 | 0.00 | 0.00 | 0.00 | 59 | 1007.1 |
| 20260506140705 | 20 | 215 | 8.0 | 19.3 | 0.00 | 0.00 | 0.00 | 58 | 1007.1 |
| 20260506140204 | 20 | 211 | 8.0 | 20.9 | 0.00 | 0.00 | 0.00 | 57 | 1007.0 |
| 20260506135204 | 20 | 195 | 8.0 | 20.9 | 0.00 | 0.00 | 0.00 | 56 | 1007.0 |
| 20260506134704 | 20 | 196 | 8.0 | 16.1 | 0.00 | 0.00 | 0.00 | 55 | 1007.0 |
| 20260506134205 | 20 | 146 | 6.4 | 16.1 | 0.00 | 0.00 | 0.00 | 55 | 1007.1 |
| 20260506133704 | 21 | 225 | 6.4 | 17.7 | 0.00 | 0.00 | 0.00 | 55 | 1007.1 |
| 20260506132704 | 20 | 215 | 9.7 | 19.3 | 0.00 | 0.00 | 0.00 | 55 | 1007.2 |
| 20260506132205 | 20 | 171 | 8.0 | 19.3 | 0.00 | 0.00 | 0.00 | 54 | 1007.2 |
| 20260506131204 | 21 | 184 | 8.0 | 19.3 | 0.00 | 0.00 | 0.00 | 53 | 1007.3 |
| 20260506130704 | 21 | 200 | 8.0 | 19.3 | 0.00 | 0.00 | 0.00 | 52 | 1007.1 |
| 20260506125704 | 21 | 243 | 6.4 | 16.1 | 0.00 | 0.00 | 0.00 | 52 | 1007.2 |
| 20260506125205 | 21 | 201 | 6.4 | 16.1 | 0.00 | 0.00 | 0.00 | 52 | 1007.3 |
| 20260506124704 | 21 | 197 | 6.4 | 17.7 | 0.00 | 0.00 | 0.00 | 51 | 1007.3 |
| 20260506124205 | 21 | 247 | 8.0 | 17.7 | 0.00 | 0.00 | 0.00 | 50 | 1007.4 |
| 20260506123704 | 21 | 204 | 8.0 | 17.7 | 0.00 | 0.00 | 0.00 | 50 | 1007.4 |
| 20260506123205 | 21 | 254 | 8.0 | 17.7 | 0.00 | 0.00 | 0.00 | 50 | 1007.5 |
| 20260506122704 | 21 | 215 | 8.0 | 16.1 | 0.00 | 0.00 | 0.00 | 50 | 1007.4 |
| 20260506122205 | 21 | 180 | 6.4 | 16.1 | 0.00 | 0.00 | 0.00 | 50 | 1007.5 |
| 20260506121705 | 21 | 249 | 6.4 | 16.1 | 0.00 | 0.00 | 0.00 | 49 | 1007.4 |
| 20260506121205 | 21 | 191 | 6.4 | 16.1 | 0.00 | 0.00 | 0.00 | 52 | 1007.5 |
| 20260506120704 | 21 | 213 | 8.0 | 22.5 | 0.00 | 0.00 | 0.00 | 52 | 1007.5 |
| 20260506120222 | 21 | 271 | 8.0 | 22.5 | 0.00 | 0.00 | 0.00 | 52 | 1007.5 |
| 20260506115704 | 21 | 229 | 8.0 | 22.5 | 0.00 | 0.00 | 0.00 | 51 | 1007.6 |
| 20260506115204 | 21 | 275 | 6.4 | 17.7 | 0.00 | 0.00 | 0.00 | 49 | 1007.6 |
| 20260506114704 | 21 | 198 | 8.0 | 17.7 | 0.00 | 0.00 | 0.00 | 50 | 1007.7 |
| 20260506114227 | 21 | 253 | 8.0 | 17.7 | 0.00 | 0.00 | 0.00 | 48 | 1007.7 |
| 20260506113205 | 21 | 267 | 6.4 | 22.5 | 0.00 | 0.00 | 0.00 | 45 | 1007.9 |
| 20260506112704 | 22 | 282 | 8.0 | 22.5 | 0.00 | 0.00 | 0.00 | 45 | 1008.0 |
| 20260506111704 | 21 | 221 | 9.7 | 24.1 | 0.00 | 0.00 | 0.00 | 46 | 1008.1 |
| 20260506111205 | 21 | 263 | 9.7 | 17.7 | 0.00 | 0.00 | 0.00 | 47 | 1008.1 |
| 20260506110705 | 20 | 227 | 8.0 | 17.7 | 0.00 | 0.00 | 0.00 | 49 | 1008.0 |
| 20260506110205 | 20 | 242 | 8.0 | 17.7 | 0.00 | 0.00 | 0.00 | 50 | 1008.2 |
| 20260506105704 | 20 | 279 | 8.0 | 16.1 | 0.00 | 0.00 | 0.00 | 53 | 1008.2 |
| 20260506105205 | 20 | 242 | 6.4 | 19.3 | 0.00 | 0.00 | 0.00 | 54 | 1008.3 |
| 20260506104704 | 20 | 184 | 6.4 | 19.3 | 0.00 | 0.00 | 0.00 | 53 | 1008.3 |
| 20260506104205 | 20 | 242 | 9.7 | 19.3 | 0.00 | 0.00 | 0.00 | 52 | 1008.4 |
| 20260506103704 | 20 | 262 | 8.0 | 19.3 | 0.00 | 0.00 | 0.00 | 52 | 1008.4 |
| 20260506103205 | 20 | 236 | 6.4 | 17.7 | 0.00 | 0.00 | 0.00 | 51 | 1008.4 |
| 20260506102205 | 20 | 215 | 4.8 | 14.5 | 0.00 | 0.00 | 0.00 | 47 | 1008.4 |
| 20260506100704 | 20 | 248 | 6.4 | 14.5 | 0.00 | 0.00 | 0.00 | 48 | 1008.4 |
| 20260506100223 | 20 | 257 | 6.4 | 16.1 | 0.00 | 0.00 | 0.00 | 48 | 1008.4 |
| 20260506095705 | 20 | 235 | 8.0 | 16.1 | 0.00 | 0.00 | 0.00 | 47 | 1008.5 |
| 20260506095205 | 20 | 220 | 8.0 | 19.3 | 0.00 | 0.00 | 0.00 | 46 | 1008.4 |
| 20260506094204 | 22 | 226 | 8.0 | 19.3 | 0.00 | 0.00 | 0.00 | 44 | 1008.4 |
| 20260506093705 | 21 | 247 | 8.0 | 19.3 | 0.00 | 0.00 | 0.00 | 45 | 1008.4 |
| 20260506093204 | 21 | 192 | 8.0 | 17.7 | 0.00 | 0.00 | 0.00 | 45 | 1008.4 |
| 20260506092205 | 21 | 222 | 8.0 | 22.5 | 0.00 | 0.00 | 0.00 | 45 | 1008.3 |
| 20260506091704 | 21 | 241 | 8.0 | 22.5 | 0.00 | 0.00 | 0.00 | 45 | 1008.3 |
| 20260506091204 | 21 | 238 | 6.4 | 19.3 | 0.00 | 0.00 | 0.00 | 45 | 1008.3 |
| 20260506090704 | 21 | 152 | 8.0 | 19.3 | 0.00 | 0.00 | 0.00 | 47 | 1008.2 |
| 20260506090205 | 21 | 154 | 8.0 | 19.3 | 0.00 | 0.00 | 0.00 | 46 | 1008.3 |
| 20260506085704 | 21 | 144 | 8.0 | 14.5 | 0.00 | 0.00 | 0.00 | 48 | 1008.4 |
| 20260506084704 | 21 | 207 | 4.8 | 12.9 | 0.00 | 0.00 | 0.00 | 49 | 1008.6 |
| 20260506084205 | 21 | 244 | 4.8 | 20.9 | 0.00 | 0.00 | 0.00 | 49 | 1008.5 |
| 20260506083204 | 20 | 101 | 6.4 | 20.9 | 0.00 | 0.00 | 0.00 | 53 | 1008.6 |
| 20260506082705 | 20 | 219 | 6.4 | 16.1 | 0.00 | 0.00 | 0.00 | 52 | 1008.6 |
| 20260506082205 | 20 | 200 | 6.4 | 16.1 | 0.00 | 0.00 | 0.00 | 51 | 1008.5 |
| 20260506081704 | 20 | 247 | 6.4 | 14.5 | 0.00 | 0.00 | 0.00 | 52 | 1008.6 |
| 20260506081205 | 20 | 181 | 4.8 | 12.9 | 0.00 | 0.00 | 0.00 | 52 | 1008.6 |
| 20260506080704 | 20 | 215 | 3.2 | 9.7 | 0.00 | 0.00 | 0.00 | 53 | 1008.6 |
| 20260506080205 | 20 | 223 | 3.2 | 9.7 | 0.00 | 0.00 | 0.00 | 53 | 1008.7 |
| 20260506072205 | 17 | 157 | 1.6 | 4.8 | 0.00 | 0.00 | 0.00 | 57 | 1008.8 |
| 20260506071221 | 17 | 136 | 1.6 | 8.0 | 0.00 | 0.00 | 0.00 | 57 | 1008.8 |
| 20260506070704 | 16 | 130 | 1.6 | 11.3 | 0.00 | 0.00 | 0.00 | 60 | 1008.8 |
| 20260506070205 | 17 | 109 | 3.2 | 11.3 | 0.00 | 0.00 | 0.00 | 60 | 1008.9 |
| 20260506062204 | 13 | 156 | 3.2 | 8.0 | 0.00 | 0.00 | 0.00 | 69 | 1009.2 |
| 20260506061705 | 13 | 155 | 3.2 | 8.0 | 0.00 | 0.00 | 0.00 | 68 | 1009.3 |
| 20260506061204 | 13 | 175 | 4.8 | 9.7 | 0.00 | 0.00 | 0.00 | 69 | 1009.2 |
| 20260506060705 | 13 | 159 | 4.8 | 9.7 | 0.00 | 0.00 | 0.00 | 70 | 1009.1 |
| 20260506060205 | 13 | 161 | 4.8 | 9.7 | 0.00 | 0.00 | 0.00 | 70 | 1009.2 |
| 20260506051205 | 10 | 120 | 3.2 | 8.0 | 0.00 | 0.00 | 0.00 | 80 | 1009.5 |
| 20260506050705 | 10 | 0 | 3.2 | 6.4 | 0.00 | 0.00 | 0.00 | 81 | 1009.6 |
| 20260506050204 | 10 | 116 | 3.2 | 6.4 | 0.00 | 0.00 | 0.00 | 83 | 1009.8 |
| 20260506044204 | 9 | 0 | 4.8 | 8.0 | 0.00 | 0.00 | 0.00 | 86 | 1009.5 |
| 20260506043704 | 8 | 0 | 4.8 | 6.4 | 0.00 | 0.00 | 0.00 | 87 | 1009.4 |
| 20260506042704 | 8 | 0 | 1.6 | 4.8 | 0.00 | 0.00 | 0.00 | 88 | 1009.5 |
| 20260506042204 | 7 | 0 | 1.6 | 3.2 | 0.00 | 0.00 | 0.00 | 89 | 1009.5 |
| 20260506041704 | 7 | 0 | 0.0 | 4.8 | 0.00 | 0.00 | 0.00 | 88 | 1009.4 |
| 20260506041204 | 7 | 0 | 1.6 | 4.8 | 0.00 | 0.00 | 0.00 | 88 | 1009.3 |
| 20260506040705 | 7 | 0 | 1.6 | 4.8 | 0.00 | 0.00 | 0.00 | 87 | 1009.3 |
| 20260506040204 | 7 | 0 | 1.6 | 3.2 | 0.00 | 0.00 | 0.00 | 87 | 1009.3 |
| 20260506035705 | 7 | 0 | 1.6 | 4.8 | 0.00 | 0.00 | 0.00 | 87 | 1009.2 |
| 20260506035204 | 7 | 0 | 0.0 | 4.8 | 0.00 | 0.00 | 0.00 | 88 | 1009.2 |
| 20260506034705 | 7 | 0 | 1.6 | 4.8 | 0.00 | 0.00 | 0.00 | 87 | 1009.2 |
| 20260506033704 | 7 | 0 | 1.6 | 4.8 | 0.00 | 0.00 | 0.00 | 87 | 1009.2 |
| 20260506032205 | 7 | 0 | 0.0 | 3.2 | 0.00 | 0.00 | 0.00 | 87 | 1009.2 |
| 20260506031705 | 7 | 0 | 0.0 | 3.2 | 0.00 | 0.00 | 0.00 | 87 | 1009.2 |
| 20260506031204 | 7 | 0 | 0.0 | 3.2 | 0.00 | 0.00 | 0.00 | 87 | 1009.2 |
| 20260506030205 | 7 | 0 | 0.0 | 1.6 | 0.00 | 0.00 | 0.00 | 86 | 1009.1 |
| 20260506025704 | 7 | 0 | 0.0 | 3.2 | 0.00 | 0.00 | 0.00 | 87 | 1009.1 |
| 20260506025205 | 7 | 0 | 0.0 | 4.8 | 0.00 | 0.00 | 0.00 | 87 | 1009.1 |
| 20260506024205 | 7 | 0 | 1.6 | 4.8 | 0.00 | 0.00 | 0.00 | 86 | 1009.1 |
| 20260506023204 | 7 | 0 | 0.0 | 4.8 | 0.00 | 0.00 | 0.00 | 85 | 1009.0 |
| 20260506022705 | 8 | 0 | 1.6 | 6.4 | 0.00 | 0.00 | 0.00 | 85 | 1008.9 |
| 20260506022204 | 8 | 0 | 1.6 | 6.4 | 0.00 | 0.00 | 0.00 | 85 | 1008.9 |
| 20260506021704 | 8 | 0 | 3.2 | 6.4 | 0.00 | 0.00 | 0.00 | 85 | 1008.8 |
| 20260506021205 | 8 | 0 | 1.6 | 4.8 | 0.00 | 0.00 | 0.00 | 85 | 1008.8 |
| 20260506020704 | 8 | 0 | 0.0 | 3.2 | 0.00 | 0.00 | 0.00 | 85 | 1008.8 |
| 20260506020205 | 8 | 0 | 0.0 | 1.6 | 0.00 | 0.00 | 0.00 | 85 | 1008.8 |
| 20260506015704 | 8 | 0 | 0.0 | 3.2 | 0.00 | 0.00 | 0.00 | 85 | 1008.8 |
| 20260506015205 | 8 | 0 | 0.0 | 3.2 | 0.00 | 0.00 | 0.00 | 84 | 1008.8 |
| 20260506014704 | 8 | 0 | 1.6 | 3.2 | 0.00 | 0.00 | 0.00 | 84 | 1008.7 |
| 20260506014205 | 8 | 0 | 0.0 | 3.2 | 0.00 | 0.00 | 0.00 | 84 | 1008.6 |
| 20260506013705 | 8 | 0 | 0.0 | 1.6 | 0.00 | 0.00 | 0.00 | 84 | 1008.6 |
| 20260506013204 | 8 | 0 | 0.0 | 1.6 | 0.00 | 0.00 | 0.00 | 84 | 1008.6 |
| 20260506012705 | 8 | 0 | 0.0 | 1.6 | 0.00 | 0.00 | 0.00 | 84 | 1008.5 |
| 20260506011704 | 8 | 0 | 0.0 | 1.6 | 0.00 | 0.00 | 0.00 | 83 | 1008.4 |
| 20260506011205 | 8 | 0 | 0.0 | 4.8 | 0.00 | 0.00 | 0.00 | 83 | 1008.4 |
| 20260506010205 | 8 | 0 | 0.0 | 4.8 | 0.00 | 0.00 | 0.00 | 83 | 1008.3 |
| 20260506005704 | 8 | 0 | 0.0 | 3.2 | 0.00 | 0.00 | 0.00 | 82 | 1008.3 |
| 20260506005205 | 8 | 0 | 0.0 | 3.2 | 0.00 | 0.00 | 0.00 | 82 | 1008.3 |
| 20260506004704 | 9 | 0 | 0.0 | 3.2 | 0.00 | 0.00 | 0.00 | 81 | 1008.3 |
| 20260506004205 | 9 | 0 | 1.6 | 3.2 | 0.00 | 0.00 | 0.00 | 80 | 1008.3 |
| 20260506003705 | 9 | 0 | 1.6 | 8.0 | 0.00 | 0.00 | 0.00 | 79 | 1008.3 |
| 20260506003205 | 10 | 0 | 1.6 | 8.0 | 0.00 | 0.00 | 0.00 | 79 | 1008.3 |
| 20260506002723 | 10 | 0 | 1.6 | 6.4 | 0.00 | 0.00 | 0.00 | 80 | 1008.2 |
| 20260506002204 | 10 | 0 | 1.6 | 4.8 | 0.00 | 0.00 | 0.00 | 80 | 1008.2 |
| 20260506001704 | 10 | 0 | 1.6 | 4.8 | 0.00 | 0.00 | 0.00 | 80 | 1008.1 |
| 20260506000704 | 10 | 0 | 0.0 | 6.4 | 0.00 | 0.00 | 0.00 | 79 | 1008.2 |
| 20260506000205 | 10 | 0 | 1.6 | 8.0 | 0.00 | 0.00 | 0.00 | 78 | 1008.2 |
| 20260505235205 | 10 | 0 | 3.2 | 8.0 | 0.00 | 0.00 | 0.00 | 76 | 1008.2 |
| 20260505234705 | 11 | 0 | 1.6 | 8.0 | 0.00 | 0.00 | 0.00 | 76 | 1008.1 |
| 20260505233705 | 11 | 0 | 1.6 | 8.0 | 0.00 | 0.00 | 0.00 | 77 | 1008.2 |
| 20260505233204 | 10 | 0 | 0.0 | 3.2 | 0.00 | 0.00 | 0.00 | 78 | 1008.1 |
| 20260505232705 | 10 | 0 | 0.0 | 1.6 | 0.00 | 0.00 | 0.00 | 77 | 1008.1 |
| 20260505232205 | 11 | 0 | 0.0 | 6.4 | 0.00 | 0.00 | 0.00 | 76 | 1008.3 |
| 20260505231704 | 11 | 0 | 0.0 | 8.0 | 0.00 | 0.00 | 0.00 | 76 | 1008.2 |
| 20260505231205 | 11 | 0 | 1.6 | 8.0 | 0.00 | 0.00 | 0.00 | 75 | 1008.2 |
| 20260505230704 | 11 | 0 | 1.6 | 8.0 | 0.00 | 0.00 | 0.00 | 75 | 1008.2 |
| 20260505230205 | 11 | 0 | 3.2 | 8.0 | 0.00 | 0.00 | 0.00 | 76 | 1008.2 |
| 20260505225704 | 11 | 0 | 1.6 | 8.0 | 0.00 | 0.00 | 0.00 | 77 | 1008.1 |
| 20260505225205 | 11 | 0 | 1.6 | 8.0 | 0.00 | 0.00 | 0.00 | 76 | 1008.1 |
| 20260505224705 | 11 | 0 | 1.6 | 6.4 | 0.00 | 0.00 | 0.00 | 76 | 1008.1 |
| 20260505223704 | 12 | 0 | 1.6 | 6.4 | 0.00 | 0.00 | 0.00 | 74 | 1008.1 |
| 20260505223204 | 12 | 0 | 1.6 | 6.4 | 0.00 | 0.00 | 0.00 | 74 | 1008.1 |
| 20260505222704 | 12 | 0 | 1.6 | 3.2 | 0.00 | 0.00 | 0.00 | 73 | 1008.1 |
| 20260505221704 | 12 | 0 | 1.6 | 3.2 | 0.00 | 0.00 | 0.00 | 74 | 1008.1 |
| 20260505221205 | 12 | 0 | 1.6 | 3.2 | 0.00 | 0.00 | 0.00 | 74 | 1008.0 |
| 20260505220704 | 12 | 0 | 1.6 | 3.2 | 0.00 | 0.00 | 0.00 | 73 | 1008.0 |
| 20260505220205 | 12 | 0 | 1.6 | 3.2 | 0.00 | 0.00 | 0.00 | 73 | 1007.9 |
| 20260505215704 | 12 | 0 | 1.6 | 3.2 | 0.00 | 0.00 | 0.00 | 72 | 1007.9 |
| 20260505215205 | 12 | 0 | 1.6 | 3.2 | 0.00 | 0.00 | 0.00 | 71 | 1008.0 |
| 20260505214205 | 12 | 0 | 0.0 | 3.2 | 0.00 | 0.00 | 0.00 | 71 | 1007.9 |
| 20260505213704 | 13 | 0 | 0.0 | 6.4 | 0.00 | 0.00 | 0.00 | 70 | 1007.7 |
| 20260505213205 | 13 | 0 | 1.6 | 6.4 | 0.00 | 0.00 | 0.00 | 68 | 1007.7 |
| 20260505211705 | 14 | 0 | 3.2 | 4.8 | 0.00 | 0.00 | 0.00 | 66 | 1007.6 |
| 20260505211204 | 14 | 0 | 1.6 | 6.4 | 0.00 | 0.00 | 0.00 | 66 | 1007.6 |
| 20260505210705 | 14 | 0 | 1.6 | 6.4 | 0.00 | 0.00 | 0.00 | 66 | 1007.7 |
| 20260505210204 | 14 | 0 | 3.2 | 4.8 | 0.00 | 0.00 | 0.00 | 66 | 1007.7 |
| 20260505205704 | 13 | 0 | 3.2 | 4.8 | 0.00 | 0.00 | 0.00 | 68 | 1007.7 |
| 20260505204704 | 13 | 0 | 1.6 | 3.2 | 0.00 | 0.00 | 0.00 | 67 | 1007.7 |
| 20260505204205 | 14 | 0 | 0.0 | 3.2 | 0.00 | 0.00 | 0.00 | 67 | 1007.7 |
| 20260505203704 | 14 | 0 | 0.0 | 3.2 | 0.00 | 0.00 | 0.00 | 67 | 1007.7 |
| 20260505203205 | 14 | 0 | 1.6 | 4.8 | 0.00 | 0.00 | 0.00 | 66 | 1007.7 |
| 20260505202205 | 15 | 0 | 1.6 | 3.2 | 0.00 | 0.00 | 0.00 | 64 | 1007.9 |
| 20260505201704 | 15 | 0 | 0.0 | 4.8 | 0.00 | 0.00 | 0.00 | 64 | 1007.7 |
| 20260505201204 | 15 | 0 | 1.6 | 8.0 | 0.00 | 0.00 | 0.00 | 62 | 1007.9 |
| 20260505200704 | 15 | 0 | 1.6 | 8.0 | 0.00 | 0.00 | 0.00 | 61 | 1007.9 |
| 20260505200205 | 16 | 0 | 3.2 | 8.0 | 0.00 | 0.00 | 0.00 | 60 | 1007.9 |
| 20260505195704 | 16 | 0 | 4.8 | 9.7 | 0.00 | 0.00 | 0.00 | 59 | 1007.9 |
| 20260505195205 | 16 | 0 | 4.8 | 12.9 | 0.00 | 0.00 | 0.00 | 58 | 1008.0 |
| 20260505194704 | 16 | 0 | 4.8 | 12.9 | 0.00 | 0.00 | 0.00 | 59 | 1007.9 |
| 20260505194205 | 16 | 0 | 4.8 | 19.3 | 0.00 | 0.00 | 0.00 | 58 | 1007.9 |
| 20260505193704 | 16 | 0 | 6.4 | 19.3 | 0.00 | 0.00 | 0.00 | 58 | 1008.0 |
| 20260505193205 | 16 | 0 | 6.4 | 19.3 | 0.00 | 0.00 | 0.00 | 58 | 1007.9 |
| 20260505192704 | 16 | 0 | 6.4 | 19.3 | 0.00 | 0.00 | 0.00 | 58 | 1007.9 |
| 20260505192205 | 16 | 0 | 8.0 | 19.3 | 0.00 | 0.00 | 0.00 | 57 | 1007.7 |
| 20260505191705 | 16 | 0 | 8.0 | 19.3 | 0.00 | 0.00 | 0.00 | 58 | 1008.0 |
| 20260505191205 | 16 | 0 | 6.4 | 12.9 | 0.00 | 0.00 | 0.00 | 58 | 1007.7 |
| 20260505190704 | 16 | 0 | 6.4 | 9.7 | 0.00 | 0.00 | 0.00 | 58 | 1007.9 |
| 20260505190204 | 16 | 0 | 4.8 | 9.7 | 0.00 | 0.00 | 0.00 | 58 | 1007.7 |
| 20260505185704 | 16 | 0 | 3.2 | 12.9 | 0.00 | 0.00 | 0.00 | 58 | 1007.7 |
| 20260505185204 | 16 | 0 | 4.8 | 12.9 | 0.00 | 0.00 | 0.00 | 58 | 1007.7 |
| 20260505184704 | 17 | 0 | 4.8 | 14.5 | 0.00 | 0.00 | 0.00 | 57 | 1007.7 |
| 20260505184205 | 17 | 0 | 6.4 | 14.5 | 0.00 | 0.00 | 0.00 | 56 | 1007.6 |
| 20260505183704 | 17 | 0 | 6.4 | 12.9 | 0.00 | 0.00 | 0.00 | 56 | 1007.6 |
| 20260505183205 | 17 | 0 | 4.8 | 12.9 | 0.00 | 0.00 | 0.00 | 56 | 1007.5 |
| 20260505181704 | 17 | 0 | 4.8 | 12.9 | 0.00 | 0.00 | 0.00 | 56 | 1007.2 |
| 20260505181205 | 17 | 0 | 4.8 | 16.1 | 0.00 | 0.00 | 0.00 | 56 | 1007.2 |
| 20260505180705 | 17 | 0 | 6.4 | 17.7 | 0.00 | 0.00 | 0.00 | 55 | 1007.3 |
| 20260505180204 | 18 | 0 | 8.0 | 17.7 | 0.00 | 0.00 | 0.00 | 54 | 1007.4 |
| 20260505175705 | 18 | 0 | 8.0 | 16.1 | 0.00 | 0.00 | 0.00 | 54 | 1007.4 |
| 20260505175204 | 18 | 0 | 6.4 | 17.7 | 0.00 | 0.00 | 0.00 | 55 | 1007.5 |
| 20260505174705 | 18 | 238 | 8.0 | 17.7 | 0.00 | 0.00 | 0.00 | 55 | 1007.4 |
| 20260505174205 | 18 | 234 | 9.7 | 19.3 | 0.00 | 0.00 | 0.00 | 54 | 1007.4 |
| 20260505173705 | 18 | 205 | 9.7 | 20.9 | 0.00 | 0.00 | 0.00 | 54 | 1007.3 |
| 20260505173204 | 18 | 246 | 9.7 | 20.9 | 0.00 | 0.00 | 0.00 | 54 | 1007.6 |
| 20260505172704 | 18 | 203 | 8.0 | 19.3 | 0.00 | 0.00 | 0.00 | 54 | 1007.5 |
| 20260505171704 | 18 | 216 | 6.4 | 14.5 | 0.00 | 0.00 | 0.00 | 53 | 1007.4 |
| 20260505171205 | 18 | 224 | 6.4 | 16.1 | 0.00 | 0.00 | 0.00 | 53 | 1007.3 |
| 20260505170704 | 19 | 210 | 6.4 | 16.1 | 0.00 | 0.00 | 0.00 | 52 | 1007.3 |
| 20260505170205 | 19 | 223 | 8.0 | 16.1 | 0.00 | 0.00 | 0.00 | 51 | 1007.5 |
| 20260505165704 | 19 | 215 | 8.0 | 20.9 | 0.00 | 0.00 | 0.00 | 50 | 1007.4 |